[[{"header":{"parameterUnit":"m.s-1","parameterCategory":2,"la1":30.2991,"la2":30.254,"lo1":-89.0895,"lo2":-89.0444,"dy":0.0017,"dx":0.0017,"nx":28,"ny":28,"refTime":"2024-03-11T09:00:00:Z","depth":"0","parameterNumber":2,"parameterNumberName":"U-component_of_CURRENTS"},"data":[0,0,0,0,0,0,0,0,0,0,0,0,0,0,0,0,0,0,0,0,0,0,0,0,0,0,0,0,0,0,0,0,0,0,0,0,0,0,0,0,0,0,0,0,0,0,0,0,0,0,0,0,0,0,0,0,0,0,0.2499,0.25,0,0.2552,0.2552,0.2552,0.257,0.257,0.257,0.2571,0.2594,0.2594,0.2595,0,0,0,0,0,0,0,0,0,0,0,0,0,0.2418,0.2419,0.2499,0.25,0.2501,0.2552,0.2552,0.2552,0.257,0.257,0.257,0.2571,0.2594,0.2594,0.2595,0,0,0,0,0,0,0,0,0,0,0,0,0,0.2457,0.242,0.2498,0.2519,0.2521,0.2552,0.2552,0.2553,0.257,0.257,0.2571,0.2571,0.2593,0.2594,0.2595,0.2595,0,0,0.2597,0.2598,0,0,0,0,0,0,0,0,0.2454,0.2459,0.2515,0.2517,0.252,0.2558,0.2533,0.2567,0.257,0.2547,0.2571,0.2571,0.2581,0.2583,0.2588,0.2597,0.2598,0.2597,0.2598,0.2598,0.2598,0,0,0,0,0,0,0,0.2452,0.2457,0.2516,0.2516,0.2519,0.2527,0.2532,0.2539,0.2559,0.2549,0.2552,0.2564,0.2582,0.2587,0.2588,0.2598,0.2597,0.2598,0.2598,0.2599,0.2652,0.2653,0,0,0,0,0,0,0.2453,0.2455,0.2514,0.2518,0.2492,0.2529,0.2534,0.2542,0.256,0.2564,0.2564,0.2565,0.2586,0.2587,0.2589,0.2627,0.2598,0.2599,0.2599,0.2651,0.2653,0.2654,0,0,0,0,0,0,0.2451,0.2457,0.2512,0.2491,0.2499,0.253,0.2539,0.2544,0.2556,0.2572,0.2574,0.2572,0.2586,0.2588,0.2607,0.2626,0.2599,0.26,0.265,0.2652,0.2653,0.2679,0,0,0,0,0,0,0.2448,0.2456,0.2458,0.2491,0.25,0.2533,0.2539,0.2545,0.2564,0.2566,0.258,0.2582,0.2586,0.2606,0.2607,0.2627,0.26,0.2649,0.2651,0.2653,0.2677,0.2681,0.2685,0,0,0,0,0,0.2445,0.2452,0.2458,0.2466,0.2503,0.2534,0.2539,0.2559,0.2564,0.257,0.2585,0.2582,0.2619,0.2607,0.2609,0.2629,0.2648,0.265,0.2653,0.2675,0.268,0.2685,0,0,0,0,0,0,0.2432,0.2456,0.2463,0.2481,0.2506,0.2538,0.2548,0.2562,0.2578,0.258,0.259,0.2593,0.2618,0.262,0.2606,0.2651,0.2635,0.2637,0.2651,0.2656,0.266,0.2668,0.2601,0,0,0,0,0,0.2427,0.243,0.2464,0.2478,0.249,0.2518,0.2532,0.2548,0.257,0.2577,0.2589,0.2605,0.2628,0.2638,0.2651,0.2671,0.2699,0.2687,0.2691,0.2695,0.2703,0.2751,0.276,0.2661,0.2661,0.2661,0,0,0.2427,0.2441,0.2444,0.2473,0.2492,0.252,0.2526,0.2551,0.2579,0.2577,0.2607,0.2616,0.2636,0.2663,0.2675,0.2667,0.2744,0.2697,0.27,0.2707,0.2754,0.2764,0.2772,0.2662,0.2662,0.2662,0,0,0.2432,0.244,0.2445,0.2468,0.25,0.252,0.2529,0.2562,0.2579,0.2608,0.262,0.2642,0.2667,0.269,0.2706,0.2739,0.2761,0.2743,0.2771,0.2817,0.2825,0.2833,0.2908,0.2923,0.2747,0.2747,0.2747,0,0.2435,0.2447,0.2454,0.2477,0.2501,0.2522,0.255,0.2574,0.2609,0.2625,0.2621,0.2673,0.2685,0.2735,0.275,0.2749,0.2788,0.275,0.2822,0.283,0.2838,0.2913,0.2928,0.2748,0.2748,0.2748,0.2748,0,0.245,0.2463,0.2473,0.2503,0.2528,0.2554,0.2594,0.2614,0.2633,0.2657,0.2699,0.2717,0.2748,0.2759,0.2768,0.2829,0.2846,0.282,0.281,0.285,0.2926,0.2942,0.275,0.275,0.2749,0.2749,0,0,0.2452,0.2476,0.2482,0.2491,0.2545,0.2562,0.2613,0.2657,0.2691,0.2714,0.2764,0.2797,0.2799,0.2818,0.2829,0.2872,0.2967,0.2873,0.2875,0.2948,0.31,0.3086,0.3102,0.2953,0.2955,0.2957,0.3142,0,0.2465,0.2492,0.2511,0.2544,0.2562,0.26,0.2647,0.269,0.2727,0.2777,0.2804,0.2854,0.2826,0.2853,0.2886,0.2951,0.3005,0.2921,0.305,0.3055,0.3037,0.3118,0.3021,0.3175,0.3157,0.316,0.3162,0,0.248,0.249,0.2519,0.2554,0.2568,0.2595,0.2661,0.2706,0.2785,0.2819,0.2861,0.2894,0.297,0.2937,0.3057,0.3007,0.3057,0.31,0.3108,0.3094,0.3069,0.3127,0.3204,0.3129,0.3186,0.3184,0.3182,0,0.2463,0.2497,0.2511,0.2526,0.2577,0.2596,0.2632,0.2709,0.2764,0.2853,0.2912,0.2975,0.3041,0.3095,0.3176,0.3131,0.332,0.3264,0.3303,0.3304,0.3247,0.3239,0.3263,0.3353,0.3352,0.3352,0.3351,0,0.247,0.2477,0.2494,0.2502,0.2533,0.2573,0.2633,0.2682,0.278,0.2853,0.2924,0.301,0.3085,0.3193,0.3231,0.3334,0.3363,0.334,0.3354,0.3256,0.3246,0.3196,0.3153,0.3359,0.3357,0.3356,0.3355,0,0.245,0.2465,0.2477,0.251,0.2524,0.2545,0.2635,0.2677,0.2778,0.2885,0.2928,0.3078,0.3213,0.3297,0.3428,0.3424,0.3427,0.3535,0.3433,0.343,0.3349,0.3312,0.3241,0.3141,0.3607,0.3608,0.3608,0,0.2432,0.2436,0.2472,0.2482,0.2493,0.2535,0.2572,0.2667,0.2724,0.2922,0.2972,0.3157,0.3259,0.3464,0.3516,0.3611,0.3477,0.3567,0.3441,0.3362,0.3331,0.3168,0.3075,0.34,0.3399,0.3398,0.3397,0,0.2393,0.2413,0.2427,0.2454,0.2475,0.2514,0.2569,0.262,0.2743,0.285,0.2996,0.3105,0.3321,0.339,0.3532,0.3562,0.3393,0.355,0.3488,0.3198,0.3002,0.2907,0.3286,0.3389,0.339,0.339,0.3391,0.3391,0.2352,0.2364,0.2386,0.241,0.2439,0.246,0.2469,0.2549,0.2638,0.2765,0.2929,0.3055,0.3242,0.3425,0.3432,0.341,0.3354,0.333,0.3309,0.3165,0.2991,0.3369,0.346,0.3461,0.3462,0.3463,0.3463,0,0.2271,0.2304,0.2332,0.2346,0.2344,0.2387,0.2434,0.2429,0.2487,0.2656,0.2773,0.2976,0.3078,0.3186,0.3282,0.3204,0.3011,0.312,0.2865,0.2797,0.3177,0.3089,0.3077,0.3077,0.3077,0.3077,0.3077,0.3077,0.2222,0.2228,0.2255,0.2228,0.2242,0.2198,0.2202,0.2226,0.2309,0.2426,0.2548,0.2698,0.2967,0.3139,0.3106,0.3027,0.2778,0.2675,0.2636,0.292,0.2936,0.2951,0.2857,0.2797,0.2797,0.2128,0.2124,0.212]},{"header":{"parameterUnit":"m.s-1","parameterCategory":2,"la1":30.2991,"la2":30.254,"lo1":-89.0895,"lo2":-89.0444,"dy":0.0017,"dx":0.0017,"nx":28,"ny":28,"refTime":"2024-03-11T09:00:00:Z","depth":"0","parameterNumber":3,"parameterNumberName":"V-component_of_CURRENTS"},"data":[0,0,0,0,0,0,0,0,0,0,0,0,0,0,0,0,0,0,0,0,0,0,0,0,0,0,0,0,0,0,0,0,0,0,0,0,0,0,0,0,0,0,0,0,0,0,0,0,0,0,0,0,0,0,0,0,0,0,0.0239,0.0239,0,0.0187,0.0186,0.0185,0.0153,0.0152,0.0152,0.0152,0.0036,0.0033,0.0031,0,0,0,0,0,0,0,0,0,0,0,0,0,0.0278,0.0278,0.0239,0.0239,0.0238,0.0187,0.0186,0.0185,0.0153,0.0152,0.0152,0.0152,0.0037,0.0034,0.003,0,0,0,0,0,0,0,0,0,0,0,0,0,0.0248,0.0278,0.0239,0.0215,0.0212,0.0187,0.0186,0.0185,0.0153,0.0152,0.0152,0.0152,0.0038,0.0034,0.003,0.0011,0,0,0.0017,0.0015,0,0,0,0,0,0,0,0,0.025,0.0246,0.0219,0.0217,0.0213,0.0175,0.0157,0.0123,0.0153,0.0176,0.0152,0.0151,0.0077,0.0069,0.0062,0.0005,0.0,0.0016,0.0014,0.0012,0.0011,0,0,0,0,0,0,0,0.0252,0.0248,0.0219,0.0218,0.0215,0.0195,0.0191,0.0151,0.0128,0.0174,0.0171,0.0164,0.0075,0.0066,0.0059,-0.0001,0.0017,0.0013,0.001,0.0008,-0.0059,-0.0058,0,0,0,0,0,0,0.0259,0.0251,0.0221,0.0217,0.023,0.0195,0.019,0.0188,0.013,0.0121,0.0165,0.0163,0.0074,0.0064,0.0054,0.0042,0.0012,0.0008,0.0006,-0.006,-0.0059,-0.0058,0,0,0,0,0,0,0.026,0.0257,0.0223,0.0232,0.0226,0.0195,0.0193,0.0187,0.0181,0.0124,0.0114,0.0164,0.0073,0.006,0.0032,0.0036,0.0006,0.0002,-0.0061,-0.0059,-0.0058,0.0007,0,0,0,0,0,0,0.0262,0.0258,0.0261,0.0233,0.0226,0.0215,0.0193,0.0187,0.0177,0.0174,0.0119,0.0108,0.0072,0.0038,0.0027,0.003,-0.0001,-0.0062,-0.006,-0.0059,0.0004,0.0011,0.0016,0,0,0,0,0,0.0263,0.0269,0.0261,0.0258,0.023,0.0215,0.0211,0.0187,0.0177,0.0179,0.0147,0.011,0.004,0.0036,0.0022,0.0024,-0.0062,-0.006,-0.0059,0.0002,0.0009,0.0016,0,0,0,0,0,0,0.0285,0.0265,0.0256,0.0255,0.024,0.021,0.0207,0.0193,0.017,0.0165,0.0116,0.0103,0.008,0.0046,0.0043,0.0011,-0.0016,-0.0017,0.0034,0.0041,0.0047,0.0065,-0.0005,0,0,0,0,0,0.0293,0.0293,0.027,0.0269,0.0264,0.0238,0.0229,0.0214,0.0189,0.0179,0.0144,0.0107,0.0077,0.0056,0.0023,0.0002,-0.0022,-0.0004,0.0002,0.0008,0.0015,-0.0016,-0.0012,-0.0052,-0.0052,-0.0052,0,0,0.0299,0.0289,0.0288,0.0274,0.026,0.0261,0.0232,0.0222,0.0224,0.0168,0.016,0.0124,0.0077,0.0058,0.0044,0.0029,0.0011,0.001,0.0015,0.0019,-0.0014,-0.001,-0.0007,-0.0051,-0.0051,-0.0051,0,0,0.0318,0.0307,0.0316,0.0307,0.029,0.0278,0.0279,0.0255,0.0245,0.0231,0.0195,0.0168,0.012,0.0091,0.0069,0.0087,0.0044,0.0077,0.0116,0.0086,0.0089,0.0091,0.0084,0.0084,0.0079,0.0079,0.0079,0,0.0328,0.0338,0.0315,0.0322,0.0321,0.0291,0.0303,0.029,0.026,0.0257,0.0238,0.0183,0.0137,0.0117,0.0124,0.0099,0.0085,0.0092,0.0094,0.0095,0.0097,0.0088,0.0088,0.0082,0.0082,0.0081,0.0081,0,0.0354,0.0361,0.0366,0.0369,0.0364,0.037,0.035,0.0349,0.0334,0.0316,0.0296,0.0242,0.0211,0.0191,0.0159,0.0148,0.0138,0.0106,0.0076,0.0105,0.0094,0.0093,0.0087,0.0086,0.0085,0.0084,0,0,0.0381,0.0386,0.0389,0.0404,0.0392,0.0396,0.0402,0.0402,0.0417,0.0377,0.0392,0.0327,0.0298,0.0272,0.0228,0.0198,0.0191,0.0162,0.0159,0.0156,0.0145,0.0129,0.0126,0.0159,0.0159,0.0158,0.0141,0,0.0413,0.0446,0.0434,0.0468,0.0486,0.0466,0.048,0.0471,0.0459,0.0466,0.0407,0.04,0.0329,0.0323,0.0279,0.0219,0.0189,0.02,0.0116,0.0115,0.0097,0.0124,0.0118,0.01,0.0139,0.0139,0.0139,0,0.0446,0.0467,0.0506,0.0533,0.054,0.055,0.0576,0.0588,0.0578,0.0569,0.054,0.0499,0.0457,0.0395,0.0296,0.0309,0.0233,0.0179,0.0176,0.0136,0.0095,0.0074,0.0096,-0.0091,0.0137,0.0137,0.0137,0,0.0489,0.0519,0.0558,0.0564,0.0586,0.06,0.0617,0.0618,0.0653,0.0644,0.0672,0.0591,0.0587,0.047,0.0352,0.0326,0.0253,0.0198,0.0112,0.0111,0.0076,0.0072,-0.0093,0.0123,0.0123,0.0124,0.0124,0,0.0533,0.0564,0.0583,0.0604,0.0663,0.0653,0.0717,0.0719,0.0749,0.0815,0.0734,0.0776,0.0607,0.0544,0.0401,0.0269,0.0284,0.013,0.0103,0.0101,0.01,-0.009,-0.018,0.0123,0.0123,0.0123,0.0123,0,0.0571,0.0583,0.0634,0.0667,0.0684,0.0728,0.08,0.0852,0.0867,0.0956,0.0968,0.0928,0.0843,0.067,0.0505,0.0359,0.0116,0.0161,0.0183,0.0159,-0.0118,-0.0202,-0.0369,-0.0436,0.0056,0.0056,0.0055,0,0.0596,0.0624,0.0685,0.073,0.0747,0.0816,0.0874,0.0909,0.0976,0.1066,0.1121,0.1075,0.1069,0.0819,0.0533,0.0282,0.0112,0.0118,0.0047,-0.0127,-0.0241,-0.0307,-0.0355,0.0037,0.0036,0.0036,0.0035,0,0.0645,0.0662,0.0709,0.0802,0.0867,0.0957,0.1041,0.1117,0.1189,0.1276,0.1383,0.1394,0.1152,0.0896,0.0539,0.0356,-0.0013,0.01,-0.0096,-0.0279,-0.0345,-0.0423,0.0054,0.0031,0.0031,0.0032,0.0032,0.0032,0.0686,0.073,0.0795,0.0883,0.0971,0.1088,0.1179,0.1288,0.143,0.1577,0.1573,0.162,0.123,0.0736,0.0455,-0.0074,-0.0065,-0.024,-0.0325,-0.0374,-0.0456,0.0026,-0.0024,-0.0024,-0.0024,-0.0024,-0.0023,0,0.0739,0.0789,0.0875,0.0989,0.1096,0.1128,0.1287,0.1394,0.1578,0.1709,0.1803,0.1638,0.1156,0.0657,-0.0055,-0.0432,-0.056,-0.0633,-0.0748,-0.0776,-0.0366,-0.0386,-0.0498,-0.0498,-0.0498,-0.0498,-0.0497,-0.0497,0.0773,0.0856,0.0899,0.1074,0.116,0.1313,0.1411,0.1575,0.1699,0.1865,0.1897,0.1887,0.1502,0.023,-0.0654,-0.0851,-0.1096,-0.1157,-0.127,-0.1027,-0.0998,-0.097,-0.1014,-0.1255,-0.1256,-0.1643,-0.1647,-0.165]}],[{"header":{"parameterUnit":"m.s-1","parameterCategory":2,"la1":30.2991,"la2":30.254,"lo1":-89.0895,"lo2":-89.0444,"dy":0.0017,"dx":0.0017,"nx":28,"ny":28,"refTime":"2024-03-11T09:00:00:Z","depth":"2","parameterNumber":2,"parameterNumberName":"U-component_of_CURRENTS"},"data":[0,0,0,0,0,0,0,0,0,0,0,0,0,0,0,0,0,0,0,0,0,0,0,0,0,0,0,0,0,0,0,0,0,0,0,0,0,0,0,0,0,0,0,0,0,0,0,0,0,0,0,0,0,0,0,0,0,0,0.2192,0.2193,0,0.2263,0.2263,0.2264,0.2295,0.2295,0.2296,0.2296,0.2449,0.2453,0.2456,0,0,0,0,0,0,0,0,0,0,0,0,0,0.2104,0.2104,0.2192,0.2193,0.2195,0.2263,0.2263,0.2264,0.2295,0.2295,0.2296,0.2296,0.2448,0.2452,0.2457,0,0,0,0,0,0,0,0,0,0,0,0,0,0.215,0.2105,0.2192,0.2222,0.2226,0.2263,0.2263,0.2264,0.2295,0.2295,0.2296,0.2296,0.2446,0.2452,0.2457,0.2482,0,0,0.2475,0.2477,0,0,0,0,0,0,0,0,0.2148,0.2153,0.2216,0.222,0.2224,0.2275,0.2289,0.2343,0.2295,0.2263,0.2296,0.2296,0.2401,0.241,0.2415,0.2489,0.2496,0.2475,0.2478,0.2481,0.2483,0,0,0,0,0,0,0,0.2144,0.215,0.2215,0.2218,0.2223,0.2239,0.2245,0.2298,0.2326,0.2266,0.227,0.2285,0.2403,0.2409,0.2419,0.2498,0.2475,0.248,0.2483,0.2486,0.2645,0.2646,0,0,0,0,0,0,0.2144,0.2147,0.2213,0.2218,0.2192,0.224,0.2247,0.2254,0.2324,0.2336,0.2285,0.2286,0.2399,0.2412,0.2425,0.252,0.2481,0.2486,0.2489,0.2644,0.2645,0.2646,0,0,0,0,0,0,0.2141,0.2148,0.221,0.2188,0.2198,0.2242,0.2249,0.2255,0.2289,0.2338,0.2351,0.2316,0.24,0.2417,0.2499,0.2524,0.2489,0.2494,0.2643,0.2644,0.2646,0.2671,0,0,0,0,0,0,0.2138,0.2147,0.2148,0.2188,0.2199,0.2236,0.2249,0.2257,0.2299,0.2302,0.2369,0.2382,0.2402,0.2491,0.2505,0.2531,0.2498,0.2642,0.2644,0.2645,0.2669,0.2673,0.2677,0,0,0,0,0,0.2134,0.2141,0.2148,0.2156,0.2201,0.2237,0.2243,0.2273,0.23,0.2307,0.2369,0.2381,0.2509,0.2497,0.2513,0.2541,0.2641,0.2643,0.2645,0.2668,0.2673,0.2677,0,0,0,0,0,0,0.211,0.2146,0.2154,0.2173,0.2203,0.2244,0.2261,0.229,0.2342,0.2356,0.2408,0.2425,0.2503,0.2519,0.2504,0.2588,0.2571,0.2576,0.2583,0.2588,0.2591,0.2572,0.2503,0,0,0,0,0,0.2103,0.2115,0.2153,0.2169,0.2186,0.2229,0.2251,0.2272,0.2325,0.2348,0.239,0.2446,0.2517,0.2552,0.2596,0.2655,0.266,0.2677,0.2681,0.2684,0.2677,0.2705,0.271,0.2652,0.2652,0.2652,0,0,0.21,0.2122,0.213,0.2164,0.2192,0.2221,0.2243,0.228,0.2312,0.236,0.2415,0.2467,0.2537,0.2598,0.2632,0.262,0.2705,0.2686,0.2689,0.268,0.2708,0.2713,0.2718,0.2654,0.2653,0.2653,0,0,0.2106,0.212,0.2133,0.216,0.2202,0.2225,0.2244,0.2287,0.2313,0.2371,0.2425,0.2484,0.2571,0.2614,0.2659,0.2709,0.2727,0.2733,0.2739,0.2766,0.2771,0.2775,0.2797,0.2803,0.2731,0.2731,0.2731,0,0.21,0.2122,0.2143,0.217,0.2197,0.2234,0.2262,0.2296,0.2356,0.2384,0.2387,0.2517,0.257,0.2672,0.2694,0.2716,0.2741,0.2721,0.2771,0.2775,0.2779,0.28,0.2806,0.2732,0.2732,0.2732,0.2732,0,0.2117,0.2139,0.2156,0.2195,0.2222,0.2252,0.2299,0.2328,0.2363,0.239,0.2472,0.2531,0.2603,0.2637,0.2695,0.2765,0.2778,0.2776,0.2758,0.2786,0.2807,0.2813,0.2734,0.2734,0.2733,0.2733,0,0,0.2096,0.2153,0.216,0.218,0.2237,0.226,0.2317,0.2369,0.2412,0.2444,0.2501,0.2602,0.2618,0.2668,0.2731,0.2764,0.2825,0.2795,0.2796,0.2813,0.2899,0.286,0.2862,0.2848,0.2849,0.285,0.2906,0,0.2104,0.2142,0.2175,0.2219,0.2244,0.2295,0.2346,0.2398,0.2437,0.2491,0.2548,0.2623,0.2638,0.2693,0.2725,0.2818,0.2842,0.281,0.2871,0.2873,0.2831,0.2868,0.2677,0.2706,0.2911,0.2912,0.2913,0,0.2109,0.2135,0.2171,0.2233,0.2251,0.2283,0.2357,0.2407,0.2492,0.2535,0.2588,0.2635,0.2721,0.2716,0.2819,0.281,0.2852,0.2894,0.2896,0.285,0.2843,0.271,0.2709,0.2923,0.2922,0.2922,0.2921,0,0.2075,0.2133,0.2155,0.2177,0.2252,0.2284,0.2331,0.2412,0.2467,0.2563,0.2609,0.2682,0.2755,0.2793,0.2874,0.2864,0.2975,0.2957,0.2945,0.2943,0.2783,0.2764,0.3,0.3,0.3,0.3,0.3,0,0.2069,0.2092,0.2139,0.2155,0.22,0.2259,0.2318,0.2388,0.2484,0.2553,0.2624,0.2692,0.2786,0.2856,0.2889,0.2941,0.2973,0.295,0.2956,0.2788,0.277,0.2954,0.2948,0.3002,0.3001,0.3001,0.3001,0,0.2038,0.2069,0.2099,0.2162,0.2185,0.2216,0.2318,0.236,0.2466,0.256,0.2601,0.2736,0.2829,0.2891,0.2991,0.2976,0.3016,0.3023,0.2821,0.2802,0.2958,0.2952,0.2996,0.2995,0.2995,0.2994,0.2993,0,0.2024,0.2032,0.2086,0.2104,0.2135,0.219,0.2235,0.2347,0.2403,0.2574,0.262,0.2755,0.2828,0.2943,0.2962,0.2988,0.3028,0.2816,0.2741,0.2956,0.2958,0.2954,0.295,0.2544,0.254,0.2536,0.2534,0,0.1997,0.2014,0.2038,0.207,0.2105,0.215,0.2223,0.2264,0.2401,0.2482,0.2595,0.2665,0.2805,0.2766,0.2831,0.2813,0.2788,0.2747,0.303,0.2578,0.2535,0.2536,0.2545,0.2503,0.2506,0.2508,0.251,0.2511,0.1968,0.1974,0.1998,0.2025,0.2067,0.2094,0.2098,0.2178,0.2249,0.2344,0.248,0.2525,0.2594,0.2595,0.253,0.2493,0.2675,0.2554,0.2562,0.2574,0.2515,0.2474,0.2419,0.2422,0.2424,0.2426,0.2427,0,0.1904,0.1924,0.1951,0.1967,0.1967,0.2027,0.2075,0.205,0.2075,0.2215,0.2285,0.2157,0.2171,0.2223,0.2142,0.2154,0.2106,0.2052,0.197,0.2005,0.2035,0.1944,0.1698,0.1695,0.1693,0.169,0,0,0.1869,0.186,0.1873,0.185,0.187,0.1843,0.1843,0.1829,0.1893,0.1893,0.1927,0.2111,0.221,0.1928,0.1902,0.1789,0.1874,0.1723,0.2324,0.2268,0.2294,0.236,0.2265,0,0,0,0,0]},{"header":{"parameterUnit":"m.s-1","parameterCategory":2,"la1":30.2991,"la2":30.254,"lo1":-89.0895,"lo2":-89.0444,"dy":0.0017,"dx":0.0017,"nx":28,"ny":28,"refTime":"2024-03-11T09:00:00:Z","depth":"2","parameterNumber":3,"parameterNumberName":"V-component_of_CURRENTS"},"data":[0,0,0,0,0,0,0,0,0,0,0,0,0,0,0,0,0,0,0,0,0,0,0,0,0,0,0,0,0,0,0,0,0,0,0,0,0,0,0,0,0,0,0,0,0,0,0,0,0,0,0,0,0,0,0,0,0,0,0.009,0.009,0,0.0031,0.003,0.0029,-0.0012,-0.0012,-0.0012,-0.0013,-0.0151,-0.0154,-0.0157,0,0,0,0,0,0,0,0,0,0,0,0,0,0.0133,0.0133,0.009,0.009,0.0089,0.0031,0.003,0.0029,-0.0012,-0.0012,-0.0012,-0.0013,-0.015,-0.0154,-0.0158,0,0,0,0,0,0,0,0,0,0,0,0,0,0.0098,0.0133,0.0091,0.0062,0.0058,0.0031,0.003,0.0029,-0.0012,-0.0012,-0.0013,-0.0013,-0.0148,-0.0153,-0.0158,-0.0181,0,0,-0.0174,-0.0176,0,0,0,0,0,0,0,0,0.01,0.0097,0.0067,0.0064,0.006,0.0017,-0.0006,-0.0045,-0.0012,0.0015,-0.0013,-0.0013,-0.0102,-0.0111,-0.012,-0.0187,-0.0193,-0.0174,-0.0177,-0.018,-0.0181,0,0,0,0,0,0,0,0.0103,0.0099,0.0067,0.0066,0.0062,0.0039,0.0034,-0.0013,-0.0042,0.0013,0.0009,0.0003,-0.0104,-0.0115,-0.0124,-0.0195,-0.0174,-0.0179,-0.0182,-0.0184,-0.0281,-0.0281,0,0,0,0,0,0,0.0113,0.0101,0.0069,0.0065,0.008,0.0039,0.0033,0.0031,-0.004,-0.005,0.0004,0.0001,-0.0106,-0.0118,-0.0129,-0.0143,-0.018,-0.0184,-0.0187,-0.0282,-0.0281,-0.028,0,0,0,0,0,0,0.0114,0.0111,0.0071,0.0082,0.0075,0.0039,0.0036,0.003,0.0022,-0.0046,-0.0058,0.0003,-0.0107,-0.0122,-0.016,-0.015,-0.0187,-0.0191,-0.0282,-0.0281,-0.0281,-0.0184,0,0,0,0,0,0,0.0116,0.0112,0.0114,0.0082,0.0075,0.0063,0.0037,0.0029,0.0019,0.0015,-0.005,-0.0064,-0.0108,-0.0152,-0.0165,-0.0158,-0.0195,-0.0283,-0.0282,-0.0281,-0.0188,-0.018,-0.0173,0,0,0,0,0,0.0117,0.0123,0.0115,0.0111,0.008,0.0063,0.0058,0.003,0.0019,0.0021,-0.002,-0.0061,-0.0156,-0.0156,-0.0171,-0.0165,-0.0283,-0.0282,-0.0281,-0.0191,-0.0181,-0.0173,0,0,0,0,0,0,0.0137,0.0118,0.0109,0.0107,0.0091,0.0057,0.0053,0.0038,0.0008,0.0002,-0.0058,-0.0074,-0.0102,-0.0147,-0.0146,-0.019,-0.0226,-0.0228,-0.0152,-0.0144,-0.0137,-0.0125,-0.0199,0,0,0,0,0,0.0146,0.0148,0.0124,0.0123,0.0118,0.0089,0.0079,0.0062,0.0031,0.0019,-0.0024,-0.0072,-0.011,-0.0136,-0.0178,-0.0207,-0.0245,-0.0213,-0.0205,-0.0199,-0.02,-0.0238,-0.0234,-0.0277,-0.0277,-0.0277,0,0,0.0151,0.0142,0.0142,0.0128,0.0112,0.0112,0.0082,0.0072,0.0071,0.0006,-0.001,-0.0049,-0.011,-0.0135,-0.0152,-0.0173,-0.0205,-0.0198,-0.0191,-0.0196,-0.0236,-0.0232,-0.0228,-0.0276,-0.0276,-0.0276,0,0,0.0167,0.0159,0.0168,0.0161,0.0145,0.013,0.0132,0.0105,0.0093,0.0072,0.0032,0.0001,-0.0062,-0.0096,-0.0125,-0.0107,-0.0162,-0.0118,-0.0079,-0.0114,-0.0111,-0.0109,-0.014,-0.0141,-0.0118,-0.0118,-0.0118,0,0.0174,0.0185,0.0167,0.0174,0.0173,0.0144,0.0155,0.0138,0.0103,0.0097,0.0076,0.0006,-0.0045,-0.0072,-0.0062,-0.0091,-0.0116,-0.0103,-0.0104,-0.0102,-0.0101,-0.0135,-0.0137,-0.0113,-0.0114,-0.0115,-0.0115,0,0.0198,0.0207,0.0212,0.0216,0.0212,0.0217,0.0196,0.0193,0.0175,0.0154,0.0129,0.0069,0.0027,0.0011,-0.0023,-0.0036,-0.0057,-0.0084,-0.0121,-0.0091,-0.0128,-0.0133,-0.0107,-0.0108,-0.011,-0.0111,0,0,0.0213,0.0228,0.023,0.0246,0.0238,0.024,0.0243,0.0239,0.0247,0.0206,0.021,0.0147,0.012,0.0086,0.0044,0.0011,-0.0002,-0.0026,-0.003,-0.0048,-0.0073,-0.0092,-0.0099,-0.0022,-0.0023,-0.0023,-0.0097,0,0.024,0.0272,0.0268,0.0299,0.0316,0.0301,0.0311,0.0301,0.0282,0.0278,0.022,0.02,0.0147,0.0135,0.0096,0.0025,-0.0011,0.002,-0.0108,-0.0112,-0.0125,-0.0104,-0.007,-0.0134,-0.0102,-0.0102,-0.0103,0,0.0265,0.0288,0.0326,0.0357,0.0363,0.0373,0.0392,0.0399,0.0381,0.0367,0.0335,0.0287,0.0237,0.0189,0.0076,0.0103,0.0024,-0.0038,-0.0043,-0.01,-0.0139,-0.0163,-0.0144,-0.0111,-0.0111,-0.011,-0.0109,0,0.0295,0.0329,0.0367,0.0375,0.04,0.0416,0.0431,0.0425,0.0449,0.0426,0.0435,0.0357,0.0334,0.0222,0.0094,0.0087,-0.003,-0.0063,-0.0158,-0.0161,-0.018,-0.0183,-0.0147,-0.0147,-0.0147,-0.0147,-0.0147,0,0.0328,0.0358,0.0386,0.0407,0.0461,0.0459,0.0509,0.0511,0.0527,0.057,0.0488,0.0496,0.0344,0.0258,0.0124,-0.0023,-0.0013,-0.0149,-0.018,-0.0144,-0.0143,-0.0167,-0.0169,-0.015,-0.0149,-0.0149,-0.0148,0,0.0352,0.0371,0.0418,0.0457,0.0477,0.0514,0.0577,0.0614,0.0619,0.0674,0.0674,0.0608,0.0494,0.0328,0.0152,0.0028,-0.0125,-0.0183,-0.0126,-0.015,-0.0241,-0.0236,-0.03,-0.0301,-0.0302,-0.0303,-0.0304,0,0.0373,0.0397,0.0458,0.0497,0.0517,0.0579,0.0628,0.066,0.0711,0.0746,0.078,0.0691,0.0641,0.0371,0.0133,-0.0107,-0.0135,-0.023,-0.025,-0.0232,-0.0256,-0.025,-0.0244,-0.0235,-0.0235,-0.0236,-0.0236,0,0.041,0.0425,0.0465,0.0547,0.0604,0.0683,0.0757,0.0814,0.0868,0.0911,0.0947,0.0908,0.0662,0.0426,0.0104,-0.0052,-0.0192,-0.0241,-0.0236,-0.0199,-0.0177,-0.0198,-0.0194,-0.0237,-0.0237,-0.0236,-0.0236,-0.0236,0.044,0.0472,0.0526,0.0602,0.0679,0.078,0.085,0.0932,0.1029,0.1106,0.1071,0.1031,0.0763,0.0354,0.0069,-0.0215,-0.0209,-0.0301,-0.0298,-0.0296,-0.0273,-0.0253,-0.0323,-0.0323,-0.0324,-0.0324,-0.0324,0,0.0482,0.0515,0.0583,0.0677,0.0764,0.0805,0.0935,0.1005,0.1121,0.1191,0.1217,0.0986,0.0716,0.041,-0.002,-0.0284,-0.0292,-0.0353,-0.0308,-0.0304,-0.0302,-0.0278,-0.033,-0.0331,-0.0332,-0.0333,0,0,0.0509,0.0567,0.0596,0.0735,0.0809,0.0939,0.1019,0.1119,0.1197,0.1255,0.1253,0.1197,0.0824,0.0516,0.0155,-0.0091,-0.0132,-0.013,-0.0094,0.0005,0.0011,-0.0241,-0.0196,0,0,0,0,0]}],[{"header":{"parameterUnit":"m.s-1","parameterCategory":2,"la1":30.2991,"la2":30.254,"lo1":-89.0895,"lo2":-89.0444,"dy":0.0017,"dx":0.0017,"nx":28,"ny":28,"refTime":"2024-03-11T09:00:00:Z","depth":"4","parameterNumber":2,"parameterNumberName":"U-component_of_CURRENTS"},"data":[0,0,0,0,0,0,0,0,0,0,0,0,0,0,0,0,0,0,0,0,0,0,0,0,0,0,0,0,0,0,0,0,0,0,0,0,0,0,0,0,0,0,0,0,0,0,0,0,0,0,0,0,0,0,0,0,0,0,0.1177,0.1177,0,0.1144,0.1144,0.1144,0.1186,0.1187,0.1188,0.1189,0.1205,0.1205,0.1204,0,0,0,0,0,0,0,0,0,0,0,0,0,0.1251,0.125,0.1178,0.1177,0.1176,0.1144,0.1144,0.1144,0.1186,0.1187,0.1189,0.119,0.1205,0.1205,0.1204,0,0,0,0,0,0,0,0,0,0,0,0,0,0.1224,0.125,0.1178,0.1188,0.1188,0.1144,0.1144,0.1144,0.1186,0.1187,0.1189,0.119,0.1205,0.1205,0.1204,0.117,0,0,0.1202,0.1201,0,0,0,0,0,0,0,0,0.1226,0.1223,0.1188,0.1187,0.1187,0.1165,0.1175,0.1153,0.1186,0.1193,0.1189,0.1191,0.1191,0.1192,0.119,0.117,0.1171,0.1202,0.1201,0.1201,0.1201,0,0,0,0,0,0,0,0.1228,0.1224,0.117,0.1186,0.1186,0.1185,0.1184,0.1171,0.119,0.1193,0.1194,0.118,0.1193,0.1191,0.1191,0.1171,0.1202,0.1201,0.1201,0.12,0.1227,0.1228,0,0,0,0,0,0,0.1219,0.1226,0.1171,0.1169,0.1204,0.1182,0.1181,0.1176,0.1189,0.119,0.1179,0.1182,0.1191,0.1192,0.1192,0.1252,0.1201,0.12,0.12,0.1226,0.1228,0.1229,0,0,0,0,0,0,0.1221,0.1215,0.1173,0.1191,0.1185,0.1179,0.1173,0.1174,0.1208,0.1177,0.1181,0.1215,0.1193,0.1193,0.1205,0.1249,0.12,0.1199,0.1225,0.1227,0.1228,0.1309,0,0,0,0,0,0,0.1224,0.1216,0.1233,0.1191,0.1183,0.1177,0.1171,0.1172,0.1192,0.1197,0.1208,0.1209,0.1194,0.1206,0.1204,0.1247,0.1199,0.1223,0.1226,0.1228,0.1305,0.1313,0.132,0,0,0,0,0,0.1226,0.1233,0.1235,0.1229,0.12,0.1178,0.1176,0.1179,0.1192,0.1216,0.1214,0.121,0.1219,0.1205,0.1203,0.1248,0.1222,0.1225,0.1228,0.1301,0.1311,0.132,0,0,0,0,0,0,0.1265,0.1236,0.1237,0.1234,0.1223,0.1184,0.1198,0.1199,0.1215,0.1228,0.1212,0.1212,0.1251,0.1227,0.1213,0.1262,0.1225,0.1228,0.1282,0.1292,0.1299,0.1265,0.1198,0,0,0,0,0,0.128,0.1289,0.1253,0.1256,0.1252,0.1234,0.1234,0.1234,0.1224,0.1236,0.1249,0.1252,0.1252,0.1255,0.126,0.1269,0.127,0.1299,0.1307,0.1314,0.1285,0.1351,0.1362,0.1238,0.1238,0.1237,0,0,0.1291,0.1278,0.1282,0.1267,0.1259,0.1258,0.1242,0.1245,0.1259,0.1232,0.1283,0.1288,0.1263,0.1288,0.1303,0.1277,0.1354,0.1317,0.1323,0.1289,0.1355,0.1367,0.1378,0.1239,0.1239,0.1239,0,0,0.1304,0.1311,0.1322,0.1315,0.1305,0.1296,0.1307,0.13,0.1322,0.1336,0.1338,0.1365,0.1361,0.1365,0.1354,0.1402,0.1403,0.1415,0.1416,0.1483,0.1494,0.1503,0.1538,0.155,0.1408,0.1409,0.1409,0,0.1321,0.1324,0.1322,0.1324,0.1319,0.132,0.1324,0.1336,0.1346,0.1366,0.1365,0.1402,0.1392,0.1416,0.1415,0.1423,0.1441,0.1386,0.1495,0.1504,0.1512,0.1546,0.1558,0.1413,0.1412,0.1412,0.1411,0,0.1326,0.1342,0.1345,0.1355,0.136,0.1362,0.1363,0.1402,0.1424,0.1434,0.149,0.1483,0.1507,0.1512,0.1454,0.1514,0.1503,0.1512,0.1474,0.153,0.1561,0.1572,0.1419,0.1417,0.1416,0.1415,0,0,0.1315,0.1346,0.1348,0.1364,0.1375,0.1375,0.1413,0.1439,0.1476,0.1513,0.1559,0.1557,0.1584,0.157,0.1561,0.1569,0.1639,0.154,0.1541,0.1576,0.1765,0.1672,0.1675,0.1674,0.1676,0.1678,0.177,0,0.1318,0.1342,0.1353,0.1382,0.1391,0.141,0.1444,0.1477,0.1512,0.157,0.1588,0.1636,0.1603,0.1623,0.1639,0.1641,0.1668,0.1611,0.17,0.1701,0.1615,0.1685,0.1684,0.1778,0.1781,0.1783,0.1784,0,0.1304,0.1329,0.136,0.1404,0.141,0.1437,0.1497,0.1529,0.1598,0.1626,0.1689,0.1714,0.1753,0.1714,0.1781,0.1748,0.1749,0.1739,0.1745,0.1624,0.1627,0.1705,0.1804,0.1802,0.1801,0.1799,0.1798,0,0.1285,0.1326,0.1361,0.1369,0.1421,0.1455,0.1497,0.1561,0.1601,0.1688,0.1733,0.1802,0.1856,0.1877,0.1871,0.1837,0.1921,0.1906,0.1831,0.1825,0.1845,0.1834,0.1953,0.1953,0.1953,0.1952,0.1952,0,0.1257,0.1286,0.1366,0.1377,0.143,0.147,0.1536,0.1583,0.1664,0.1719,0.1788,0.184,0.1894,0.1948,0.192,0.1916,0.2006,0.1825,0.1846,0.1878,0.1869,0.1854,0.1841,0.1956,0.1955,0.1954,0.1954,0,0.1212,0.1263,0.1308,0.1389,0.1419,0.1463,0.1556,0.1599,0.1693,0.1768,0.1805,0.1905,0.1976,0.2018,0.2055,0.1995,0.1987,0.1964,0.1994,0.2016,0.1826,0.1817,0.1887,0.1884,0.1882,0.188,0.1879,0,0.1187,0.1209,0.131,0.1343,0.1383,0.1459,0.1502,0.1601,0.1641,0.179,0.1814,0.1935,0.1985,0.1985,0.2024,0.2025,0.1987,0.1975,0.1867,0.1808,0.1822,0.1816,0.1809,0.1876,0.1875,0.1875,0.1874,0,0.1136,0.1188,0.1224,0.13,0.1357,0.1409,0.1485,0.1507,0.1618,0.1728,0.1782,0.1819,0.19,0.1924,0.1953,0.1936,0.1973,0.1952,0.1955,0.1853,0.1796,0.181,0.1806,0.1867,0.1868,0.1869,0.1869,0,0.1103,0.1118,0.118,0.1232,0.1301,0.1328,0.138,0.1431,0.1489,0.1642,0.1662,0.1783,0.1888,0.1882,0.1902,0.1893,0.1842,0.1753,0.1765,0.1774,0.1689,0.1597,0.1625,0,0,0,0,0,0.1065,0.1068,0.1107,0.1153,0.1215,0.1259,0.1346,0.1398,0.1513,0.1513,0.158,0.1642,0.1688,0.1751,0.1715,0.1843,0.1845,0.1792,0.1747,0.1827,0.1835,0.1744,0,0,0,0,0,0,0.1038,0.1067,0.1076,0.1074,0.1091,0.1148,0.1199,0.128,0.1282,0.1409,0.1444,0.1546,0.1615,0.1696,0.1686,0.1703,0.1641,0.1869,0.1865,0.1822,0.183,0.1836,0.1745,0,0,0,0,0]},{"header":{"parameterUnit":"m.s-1","parameterCategory":2,"la1":30.2991,"la2":30.254,"lo1":-89.0895,"lo2":-89.0444,"dy":0.0017,"dx":0.0017,"nx":28,"ny":28,"refTime":"2024-03-11T09:00:00:Z","depth":"4","parameterNumber":3,"parameterNumberName":"V-component_of_CURRENTS"},"data":[0,0,0,0,0,0,0,0,0,0,0,0,0,0,0,0,0,0,0,0,0,0,0,0,0,0,0,0,0,0,0,0,0,0,0,0,0,0,0,0,0,0,0,0,0,0,0,0,0,0,0,0,0,0,0,0,0,0,0.0099,0.0099,0,0.006,0.0059,0.0058,0.0022,0.0022,0.0022,0.0021,-0.0098,-0.0101,-0.0104,0,0,0,0,0,0,0,0,0,0,0,0,0,0.0107,0.0107,0.0099,0.0099,0.0099,0.006,0.0059,0.0058,0.0022,0.0022,0.0022,0.0021,-0.0097,-0.01,-0.0104,0,0,0,0,0,0,0,0,0,0,0,0,0,0.0086,0.0107,0.0099,0.0078,0.0076,0.006,0.0059,0.0058,0.0022,0.0022,0.0021,0.0021,-0.0096,-0.01,-0.0104,-0.0128,0,0,-0.0118,-0.012,0,0,0,0,0,0,0,0,0.0087,0.0086,0.0082,0.008,0.0078,0.0049,0.0018,-0.0007,0.0022,0.0039,0.0021,0.0021,-0.0054,-0.0062,-0.0072,-0.0134,-0.0139,-0.0119,-0.0122,-0.0124,-0.0125,0,0,0,0,0,0,0,0.0089,0.0087,0.008,0.0082,0.0079,0.0059,0.0056,0.0013,-0.001,0.0038,0.0036,0.0037,-0.0056,-0.0068,-0.0076,-0.0141,-0.0119,-0.0123,-0.0126,-0.0127,-0.0232,-0.0232,0,0,0,0,0,0,0.0103,0.0088,0.0081,0.0079,0.0086,0.006,0.0056,0.0055,-0.0008,-0.0016,0.0037,0.0035,-0.006,-0.007,-0.008,-0.011,-0.0124,-0.0128,-0.013,-0.0232,-0.0232,-0.0232,0,0,0,0,0,0,0.0103,0.0102,0.0083,0.0086,0.0082,0.006,0.006,0.0055,0.0047,-0.0007,-0.0017,0.0036,-0.0061,-0.0074,-0.0111,-0.0115,-0.013,-0.0134,-0.0232,-0.0232,-0.0232,-0.0171,0,0,0,0,0,0,0.0103,0.0103,0.0107,0.0087,0.0083,0.008,0.006,0.0054,0.005,0.0047,-0.0011,-0.0023,-0.0062,-0.0104,-0.0116,-0.0121,-0.0138,-0.0232,-0.0232,-0.0232,-0.0173,-0.0169,-0.0165,0,0,0,0,0,0.0104,0.011,0.0107,0.0106,0.0089,0.0081,0.0077,0.0058,0.005,0.005,0.0011,-0.0021,-0.0113,-0.0108,-0.0122,-0.0128,-0.0232,-0.0232,-0.0232,-0.0174,-0.017,-0.0165,0,0,0,0,0,0,0.0111,0.0107,0.0103,0.0106,0.0099,0.0076,0.0075,0.0065,0.0035,0.003,-0.0021,-0.0035,-0.0072,-0.0106,-0.0099,-0.0159,-0.0178,-0.0181,-0.013,-0.0126,-0.0122,-0.0092,-0.0141,0,0,0,0,0,0.0118,0.0123,0.0114,0.0117,0.0116,0.0098,0.0093,0.0082,0.0056,0.0043,0.0006,-0.0039,-0.0084,-0.0107,-0.0151,-0.0181,-0.021,-0.0195,-0.0191,-0.0188,-0.0173,-0.0226,-0.0225,-0.0232,-0.0232,-0.0232,0,0,0.0122,0.0121,0.0123,0.012,0.0111,0.0114,0.0093,0.009,0.0089,0.0033,0.0016,-0.0029,-0.009,-0.0125,-0.0144,-0.0152,-0.02,-0.0188,-0.0185,-0.0171,-0.0226,-0.0225,-0.0225,-0.0232,-0.0232,-0.0232,0,0,0.0135,0.0133,0.0142,0.0141,0.0137,0.0127,0.0132,0.0115,0.0104,0.0085,0.004,0.0003,-0.0059,-0.01,-0.0131,-0.0133,-0.018,-0.0153,-0.0109,-0.0162,-0.0161,-0.0161,-0.0186,-0.0188,-0.0149,-0.0149,-0.0149,0,0.014,0.0151,0.0143,0.0152,0.0156,0.0139,0.0149,0.0135,0.0109,0.01,0.0088,0.0002,-0.0046,-0.0095,-0.0091,-0.0124,-0.0152,-0.0121,-0.0156,-0.0156,-0.0157,-0.0183,-0.0187,-0.0146,-0.0147,-0.0147,-0.0147,0,0.0159,0.0169,0.0175,0.0183,0.0184,0.0191,0.0179,0.0175,0.0164,0.0146,0.0107,0.0047,-0.0001,-0.0027,-0.0058,-0.0093,-0.0109,-0.0146,-0.0162,-0.0153,-0.018,-0.0185,-0.0142,-0.0143,-0.0144,-0.0145,0,0,0.0167,0.0186,0.0189,0.0202,0.0204,0.0208,0.0209,0.0204,0.0206,0.0174,0.0166,0.0097,0.0071,0.0036,-0.0017,-0.0053,-0.0081,-0.009,-0.0095,-0.0105,-0.0177,-0.0172,-0.0177,-0.0128,-0.0129,-0.013,-0.0189,0,0.0186,0.0214,0.0216,0.0243,0.0257,0.025,0.0256,0.0247,0.023,0.0217,0.016,0.0127,0.009,0.0066,0.0025,-0.0062,-0.0093,-0.006,-0.0193,-0.0196,-0.0186,-0.0183,-0.0132,-0.0193,-0.0194,-0.0195,-0.0196,0,0.0204,0.0223,0.0255,0.0281,0.0287,0.0299,0.0309,0.0314,0.0287,0.0272,0.0235,0.0188,0.0133,0.0098,-0.0021,0.0001,-0.0071,-0.0133,-0.0138,-0.0155,-0.02,-0.021,-0.0206,-0.0205,-0.0204,-0.0204,-0.0203,0,0.0218,0.0249,0.028,0.0289,0.0313,0.0327,0.0339,0.033,0.0341,0.0307,0.0305,0.0226,0.019,0.0089,-0.0023,-0.0028,-0.0152,-0.0187,-0.0246,-0.0246,-0.026,-0.0259,-0.0265,-0.0265,-0.0265,-0.0265,-0.0265,0,0.0236,0.026,0.0292,0.0309,0.035,0.0356,0.039,0.0386,0.0387,0.0402,0.0339,0.0323,0.0185,0.0099,-0.0008,-0.0132,-0.0147,-0.0227,-0.0263,-0.0232,-0.0228,-0.0263,-0.0262,-0.0267,-0.0267,-0.0266,-0.0266,0,0.0245,0.0266,0.0304,0.0341,0.036,0.0389,0.0437,0.0457,0.0454,0.047,0.0465,0.0391,0.0281,0.0144,-0.0025,-0.0108,-0.0236,-0.0279,-0.0209,-0.0243,-0.0294,-0.0289,-0.0345,-0.0345,-0.0345,-0.0346,-0.0346,0,0.0254,0.0274,0.0331,0.0361,0.0382,0.043,0.0467,0.0488,0.0513,0.0512,0.052,0.043,0.0363,0.015,-0.0009,-0.021,-0.0245,-0.0303,-0.0311,-0.0273,-0.0304,-0.0298,-0.0293,-0.0346,-0.0346,-0.0346,-0.0347,0,0.0268,0.0287,0.0319,0.0384,0.0431,0.0489,0.0541,0.0566,0.0594,0.0591,0.057,0.0464,0.034,0.0163,0.0007,-0.0143,-0.0262,-0.0307,-0.0308,-0.0316,-0.0276,-0.0304,-0.0299,-0.0348,-0.0347,-0.0347,-0.0347,0,0.028,0.0302,0.0347,0.0403,0.0467,0.0531,0.0558,0.0595,0.0625,0.0627,0.0616,0.0487,0.0411,0.0198,0.0051,-0.0092,-0.0133,-0.018,-0.0188,-0.0189,-0.0133,-0.0059,-0.0085,0,0,0,0,0,0.0293,0.0316,0.0365,0.043,0.0493,0.0537,0.0602,0.0624,0.0652,0.065,0.0639,0.0529,0.0324,0.023,0.0089,0.0024,-0.0174,-0.0148,-0.0236,-0.0353,-0.0352,-0.0313,0,0,0,0,0,0,0.0303,0.0342,0.0363,0.0445,0.0493,0.0572,0.0617,0.0637,0.0637,0.0642,0.0536,0.0494,0.0288,0.0406,0.0087,0.0042,-0.0033,-0.0244,-0.0247,-0.0354,-0.0353,-0.0352,-0.0311,0,0,0,0,0]}]]